| time (UTC) | temp C | wind direction | speed KPH | gust KPH | rain 1hr cm | rain 24hr cm | rain mn cm | humidity % | barometer mb |
| 20260906231503 | 35 | 77 | 1.6 | 6.4 | 0.00 | 0.00 | 0.00 | 41 | 1008.6 |
| 20260906230005 | 36 | 114 | 0.0 | 4.8 | 0.00 | 0.00 | 0.00 | 40 | 1008.6 |
| 20260906224501 | 36 | 193 | 0.0 | 4.8 | 0.00 | 0.00 | 0.00 | 39 | 1008.6 |
| 20260906223100 | 36 | 225 | 1.6 | 14.5 | 0.00 | 0.00 | 0.00 | 40 | 1008.6 |
| 20260906221559 | 36 | 102 | 0.0 | 6.4 | 0.00 | 0.00 | 0.00 | 39 | 1008.7 |
| 20260906220100 | 36 | 71 | 1.6 | 9.7 | 0.00 | 0.00 | 0.00 | 40 | 1008.8 |
| 20260906214555 | 37 | 102 | 1.6 | 8.0 | 0.00 | 0.00 | 0.00 | 38 | 1008.8 |
| 20260906213055 | 36 | 117 | 1.6 | 8.0 | 0.00 | 0.00 | 0.00 | 40 | 1009.1 |
| 20260906211554 | 37 | 74 | 0.0 | 6.4 | 0.00 | 0.00 | 0.00 | 39 | 1009.3 |
| 20260906210054 | 37 | 105 | 3.2 | 17.7 | 0.00 | 0.00 | 0.00 | 40 | 1009.6 |
| 20260906204548 | 37 | 111 | 0.0 | 6.4 | 0.00 | 0.00 | 0.00 | 39 | 1009.8 |
| 20260906203047 | 37 | 97 | 0.0 | 8.0 | 0.00 | 0.00 | 0.00 | 39 | 1009.9 |
| 20260906201548 | 37 | 291 | 0.0 | 11.3 | 0.00 | 0.00 | 0.00 | 40 | 1010.0 |
| 20260906200044 | 37 | 101 | 1.6 | 9.7 | 0.00 | 0.00 | 0.00 | 39 | 1010.2 |
| 20260906194542 | 37 | 130 | 1.6 | 9.7 | 0.00 | 0.00 | 0.00 | 40 | 1010.3 |
| 20260906193041 | 37 | 155 | 0.0 | 9.7 | 0.00 | 0.00 | 0.00 | 39 | 1010.5 |
| 20260906191542 | 36 | 150 | 1.6 | 9.7 | 0.00 | 0.00 | 0.00 | 41 | 1010.7 |
| 20260906190037 | 36 | 163 | 0.0 | 8.0 | 0.00 | 0.00 | 0.00 | 45 | 1010.8 |
| 20260906184535 | 36 | 146 | 0.0 | 6.4 | 0.00 | 0.00 | 0.00 | 45 | 1010.8 |
| 20260906183044 | 36 | 139 | 0.0 | 9.7 | 0.00 | 0.00 | 0.00 | 44 | 1011.0 |
| 20260906181533 | 36 | 208 | 1.6 | 8.0 | 0.00 | 0.00 | 0.00 | 45 | 1011.3 |
| 20260906180031 | 36 | 248 | 0.0 | 6.4 | 0.00 | 0.00 | 0.00 | 45 | 1011.5 |
| 20260906174528 | 36 | 113 | 0.0 | 6.4 | 0.00 | 0.00 | 0.00 | 47 | 1011.9 |
| 20260906173025 | 35 | 271 | 1.6 | 8.0 | 0.00 | 0.00 | 0.00 | 48 | 1012.1 |
| 20260906171521 | 35 | 174 | 1.6 | 11.3 | 0.00 | 0.00 | 0.00 | 47 | 1012.3 |
| 20260906170029 | 35 | 246 | 0.0 | 11.3 | 0.00 | 0.00 | 0.00 | 49 | 1012.5 |
| 20260906164516 | 34 | 148 | 0.0 | 6.4 | 0.00 | 0.00 | 0.00 | 52 | 1012.6 |
| 20260906163015 | 33 | 294 | 0.0 | 4.8 | 0.00 | 0.00 | 0.00 | 53 | 1012.6 |
| 20260906161520 | 33 | 148 | 0.0 | 6.4 | 0.00 | 0.00 | 0.00 | 56 | 1012.6 |
| 20260906160011 | 33 | 266 | 0.0 | 4.8 | 0.00 | 0.00 | 0.00 | 58 | 1012.6 |
| 20260906154512 | 32 | 257 | 1.6 | 4.8 | 0.00 | 0.00 | 0.00 | 60 | 1012.6 |
| 20260906153005 | 32 | 294 | 0.0 | 3.2 | 0.00 | 0.00 | 0.00 | 61 | 1012.5 |
| 20260906151503 | 32 | 102 | 0.0 | 1.6 | 0.00 | 0.00 | 0.00 | 63 | 1012.3 |
| 20260906150105 | 31 | 156 | 0.0 | 3.2 | 0.00 | 0.00 | 0.00 | 65 | 1012.3 |
| 20260906144558 | 31 | 163 | 0.0 | 1.6 | 0.00 | 0.00 | 0.00 | 65 | 1012.2 |
| 20260906143056 | 31 | 184 | 0.0 | 1.6 | 0.00 | 0.00 | 0.00 | 65 | 1012.3 |
| 20260906141551 | 30 | 99 | 0.0 | 3.2 | 0.00 | 0.00 | 0.00 | 68 | 1012.2 |
| 20260906140051 | 30 | 163 | 0.0 | 1.6 | 0.00 | 0.00 | 0.00 | 68 | 1012.3 |
| 20260906134556 | 30 | 132 | 0.0 | 1.6 | 0.00 | 0.00 | 0.00 | 70 | 1012.2 |
| 20260906133107 | 28 | 150 | 0.0 | 1.6 | 0.00 | 0.00 | 0.00 | 73 | 1012.2 |
| 20260906131542 | 27 | 259 | 0.0 | 1.6 | 0.00 | 0.00 | 0.00 | 78 | 1012.3 |
| 20260906130042 | 26 | 224 | 0.0 | 0.0 | 0.00 | 0.00 | 0.00 | 79 | 1012.2 |
| 20260906124537 | -17 | 0.0 | 0.0 | 0.00 | 0.00 | 0.00 | 1012.1 | ||
| 20260906123032 | -17 | 0.0 | 0.0 | 0.00 | 0.00 | 0.00 | 1012.0 | ||
| 20260906121529 | -17 | 0.0 | 0.0 | 0.00 | 0.00 | 0.00 | 1011.7 | ||
| 20260906120024 | -17 | 0.0 | 0.0 | 0.00 | 0.00 | 0.00 | 1011.7 | ||
| 20260906114520 | -17 | 0.0 | 0.0 | 0.00 | 0.00 | 0.00 | 1011.4 | ||
| 20260906113015 | -17 | 0.0 | 0.0 | 0.00 | 0.00 | 0.00 | 1011.4 | ||
| 20260906111509 | -17 | 0.0 | 0.0 | 0.00 | 0.00 | 0.00 | 1011.2 | ||
| 20260906110007 | -17 | 0.0 | 0.0 | 0.00 | 0.00 | 0.00 | 1011.2 | ||
| 20260906104500 | -17 | 0.0 | 0.0 | 0.00 | 0.00 | 0.00 | 1011.1 | ||
| 20260906103057 | -17 | 0.0 | 0.0 | 0.00 | 0.00 | 0.00 | 1011.2 | ||
| 20260906101553 | -17 | 0.0 | 0.0 | 0.00 | 0.00 | 0.00 | 1010.9 | ||
| 20260906100048 | -17 | 0.0 | 0.0 | 0.00 | 0.00 | 0.00 | 1010.8 | ||
| 20260906094543 | -17 | 0.0 | 0.0 | 0.00 | 0.00 | 0.00 | 1010.6 | ||
| 20260906093040 | -17 | 0.0 | 0.0 | 0.00 | 0.00 | 0.00 | 1010.4 | ||
| 20260906091536 | -17 | 0.0 | 0.0 | 0.00 | 0.00 | 0.00 | 1010.4 | ||
| 20260906090031 | -17 | 0.0 | 0.0 | 0.00 | 0.00 | 0.00 | 1010.3 | ||
| 20260906084527 | 26 | 228 | 0.0 | 1.6 | 0.00 | 0.00 | 0.00 | 75 | 1010.4 |
| 20260906083025 | 27 | 231 | 0.0 | 1.6 | 0.00 | 0.00 | 0.00 | 75 | 1010.3 |
| 20260906081523 | 27 | 241 | 0.0 | 1.6 | 0.00 | 0.00 | 0.00 | 75 | 1010.3 |
| 20260906080025 | 27 | 278 | 0.0 | 1.6 | 0.00 | 0.00 | 0.00 | 74 | 1010.3 |
| 20260906074520 | 27 | 215 | 0.0 | 3.2 | 0.00 | 0.00 | 0.00 | 73 | 1010.4 |
| 20260906073022 | 27 | 205 | 0.0 | 4.8 | 0.00 | 0.00 | 0.00 | 73 | 1010.6 |
| 20260906071518 | 28 | 226 | 0.0 | 6.4 | 0.00 | 0.00 | 0.00 | 73 | 1010.5 |
| 20260906070017 | 28 | 204 | 0.0 | 1.6 | 0.00 | 0.00 | 0.00 | 73 | 1010.6 |
| 20260906064516 | 28 | 301 | 0.0 | 1.6 | 0.00 | 0.00 | 0.00 | 73 | 1010.7 |
| 20260906063015 | 27 | 249 | 0.0 | 3.2 | 0.00 | 0.00 | 0.00 | 73 | 1010.6 |
| 20260906061514 | 27 | 278 | 0.0 | 0.0 | 0.00 | 0.00 | 0.00 | 74 | 1010.6 |
| 20260906060012 | 27 | 278 | 0.0 | 0.0 | 0.00 | 0.00 | 0.00 | 72 | 1010.7 |
| 20260906054511 | 28 | 278 | 0.0 | 0.0 | 0.00 | 0.00 | 0.00 | 71 | 1010.7 |
| 20260906053006 | 28 | 228 | 0.0 | 0.0 | 0.00 | 0.00 | 0.00 | 69 | 1010.6 |
| 20260906051504 | 28 | 227 | 0.0 | 0.0 | 0.00 | 0.00 | 0.00 | 68 | 1010.7 |
| 20260906050005 | 28 | 225 | 0.0 | 0.0 | 0.00 | 0.00 | 0.00 | 67 | 1010.7 |
| 20260906044600 | 29 | 255 | 0.0 | 0.0 | 0.00 | 0.00 | 0.00 | 66 | 1010.8 |
| 20260906043102 | 29 | 253 | 0.0 | 0.0 | 0.00 | 0.00 | 0.00 | 66 | 1010.7 |
| 20260906041600 | 30 | 256 | 0.0 | 1.6 | 0.00 | 0.00 | 0.00 | 64 | 1010.4 |
| 20260906040123 | 30 | 278 | 0.0 | 3.2 | 0.00 | 0.00 | 0.00 | 64 | 1010.4 |
| 20260906034558 | 30 | 288 | 0.0 | 0.0 | 0.00 | 0.00 | 0.00 | 63 | 1010.6 |
| 20260906033108 | 30 | 288 | 0.0 | 3.2 | 0.00 | 0.00 | 0.00 | 62 | 1010.5 |
| 20260906031601 | 30 | 224 | 0.0 | 3.2 | 0.00 | 0.00 | 0.00 | 60 | 1010.7 |
| 20260906030057 | 31 | 264 | 0.0 | 4.8 | 0.00 | 0.00 | 0.00 | 59 | 1010.7 |
| 20260906024610 | 31 | 166 | 0.0 | 8.0 | 0.00 | 0.00 | 0.00 | 58 | 1010.5 |
| 20260906023058 | 31 | 274 | 1.6 | 9.7 | 0.00 | 0.00 | 0.00 | 58 | 1010.4 |
| 20260906021556 | 31 | 298 | 0.0 | 4.8 | 0.00 | 0.00 | 0.00 | 58 | 1010.0 |
| 20260906020057 | 31 | 122 | 1.6 | 9.7 | 0.00 | 0.00 | 0.00 | 57 | 1009.8 |
| 20260906014606 | 32 | 192 | 1.6 | 6.4 | 0.00 | 0.00 | 0.00 | 56 | 1009.6 |
| 20260906013053 | 32 | 225 | 1.6 | 14.5 | 0.00 | 0.00 | 0.00 | 54 | 1009.2 |
| 20260906011557 | 33 | 104 | 3.2 | 11.3 | 0.00 | 0.00 | 0.00 | 50 | 1008.9 |
| 20260906010053 | 34 | 131 | 0.0 | 4.8 | 0.00 | 0.00 | 0.00 | 44 | 1008.6 |
| 20260906004553 | 34 | 107 | 0.0 | 3.2 | 0.00 | 0.00 | 0.00 | 43 | 1008.6 |
| 20260906003051 | 35 | 82 | 0.0 | 4.8 | 0.00 | 0.00 | 0.00 | 42 | 1008.5 |
| 20260906001550 | 35 | 105 | 0.0 | 3.2 | 0.00 | 0.00 | 0.00 | 41 | 1008.6 |
| 20260906000051 | 35 | 81 | 0.0 | 3.2 | 0.00 | 0.00 | 0.00 | 41 | 1008.4 |
| 20260905234606 | 35 | 136 | 0.0 | 6.4 | 0.00 | 0.00 | 0.00 | 39 | 1008.3 |
| 20260905233050 | 35 | 245 | 0.0 | 4.8 | 0.00 | 0.00 | 0.00 | 39 | 1008.3 |